,,,PA_Meas_PMT16A,,PR_Meas_QMR101_102,,RH_Meas_QMH101,,SR_Meas_QMS101,,TA_Meas_QMH101,,GenWind,,GenWind,
date,time,status,PA,status,PR,status,RH,status,SR,status,TA,status,DirAvg,status,SpdAvg,
2011-04-06, 00:00:04,VALID,1001.6,VALID,0,VALID,92.1658,VALID,0,VALID,25.2217,VALID,144,VALID,0,
2011-04-06, 00:01:04,VALID,1001.57,VALID,0,VALID,92.204,VALID,0,VALID,25.2607,VALID,144,VALID,0,
2011-04-06, 00:02:04,VALID,1001.54,VALID,0,VALID,92.2192,VALID,0,VALID,25.2997,VALID,144,VALID,0,
2011-04-06, 00:03:04,VALID,1001.52,VALID,0,VALID,92.2345,VALID,0,VALID,25.3193,VALID,144,VALID,0,
2011-04-06, 00:04:04,VALID,1001.51,VALID,0,VALID,92.2345,VALID,0,VALID,25.3388,VALID,144,VALID,0,
2011-04-06, 00:05:04,VALID,1001.5,VALID,0,VALID,92.2421,VALID,0,VALID,25.3583,VALID,150,VALID,0,
2011-04-06, 00:06:04,VALID,1001.5,VALID,0,VALID,92.2421,VALID,0.112286,VALID,25.3583,VALID,150,VALID,0,
2011-04-06, 00:07:04,VALID,1001.49,VALID,0,VALID,92.2421,VALID,0,VALID,25.3778,VALID,150,VALID,0,
2011-04-06, 00:08:04,VALID,1001.52,VALID,0,VALID,92.2421,VALID,0,VALID,25.3778,VALID,150,VALID,0,
2011-04-06, 00:09:04,VALID,1001.47,VALID,0,VALID,92.2192,VALID,0,VALID,25.3583,VALID,130,VALID,0,
2011-04-06, 00:10:04,VALID,1001.48,VALID,0,VALID,92.204,VALID,0,VALID,25.3193,VALID,130,VALID,0,
2011-04-06, 00:11:04,VALID,1001.5,VALID,0,VALID,92.1887,VALID,0,VALID,25.3193,VALID,130,VALID,0,
2011-04-06, 00:12:04,VALID,1001.47,VALID,0,VALID,92.1506,VALID,0.112286,VALID,25.3193,VALID,130,VALID,0,
2011-04-06, 00:13:04,VALID,1001.49,VALID,0,VALID,92.1353,VALID,0.112286,VALID,25.2997,VALID,130,VALID,0,
2011-04-06, 00:14:04,VALID,1001.48,VALID,0,VALID,92.0819,VALID,0,VALID,25.2802,VALID,130,VALID,0,
2011-04-06, 00:15:04,VALID,1001.46,VALID,0,VALID,92.0514,VALID,0,VALID,25.3017,VALID,130,VALID,0,
2011-04-06, 00:16:04,VALID,1001.43,VALID,0,VALID,92.0209,VALID,0,VALID,25.2802,VALID,130,VALID,0,
2011-04-06, 00:17:04,VALID,1001.44,VALID,0,VALID,92.0132,VALID,0,VALID,25.3017,VALID,130,VALID,0,
2011-04-06, 00:18:04,VALID,1001.43,VALID,0,VALID,91.9598,VALID,0,VALID,25.2821,VALID,130,VALID,0,
2011-04-06, 00:19:04,VALID,1001.41,VALID,0,VALID,91.9827,VALID,0,VALID,25.2607,VALID,130,VALID,0,
2011-04-06, 00:20:04,VALID,1001.39,VALID,0,VALID,91.9445,VALID,0,VALID,25.2821,VALID,130,VALID,0,
2011-04-06, 00:21:04,VALID,1001.39,VALID,0,VALID,91.9217,VALID,0,VALID,25.2821,VALID,130,VALID,0,
2011-04-06, 00:22:04,VALID,1001.39,VALID,0,VALID,91.9217,VALID,0,VALID,25.2626,VALID,130,VALID,0,
2011-04-06, 00:23:04,VALID,1001.35,VALID,0,VALID,91.8835,VALID,0,VALID,25.2821,VALID,130,VALID,0,
2011-04-06, 00:24:04,VALID,1001.34,VALID,0,VALID,91.8683,VALID,0,VALID,25.2412,VALID,130,VALID,0,
2011-04-06, 00:25:04,VALID,1001.33,VALID,0,VALID,91.8759,VALID,0,VALID,25.2412,VALID,130,VALID,0,
2011-04-06, 00:26:04,VALID,1001.31,VALID,0,VALID,91.8683,VALID,0,VALID,25.2412,VALID,130,VALID,0,
2011-04-06, 00:27:04,VALID,1001.33,VALID,0,VALID,91.8911,VALID,0,VALID,25.2607,VALID,130,VALID,0,
2011-04-06, 00:28:04,VALID,1001.3,VALID,0,VALID,91.914,VALID,0,VALID,25.2802,VALID,130,VALID,0,
2011-04-06, 00:29:04,VALID,1001.29,VALID,0,VALID,91.914,VALID,0,VALID,25.2821,VALID,130,VALID,0,
2011-04-06, 00:30:04,VALID,1001.29,VALID,0,VALID,91.914,VALID,0,VALID,25.2821,VALID,130,VALID,0,
2011-04-06, 00:31:04,VALID,1001.29,VALID,0,VALID,91.9445,VALID,0,VALID,25.3017,VALID,130,VALID,0,
2011-04-06, 00:32:04,VALID,1001.29,VALID,0,VALID,91.9522,VALID,0,VALID,25.3017,VALID,130,VALID,0,
2011-04-06, 00:33:04,VALID,1001.26,VALID,0,VALID,91.9598,VALID,0,VALID,25.3036,VALID,130,VALID,0,
2011-04-06, 00:34:04,VALID,1001.26,VALID,0,VALID,91.9598,VALID,0,VALID,25.3036,VALID,130,VALID,0,
2011-04-06, 00:35:04,VALID,1001.25,VALID,0,VALID,91.9674,VALID,0,VALID,25.2821,VALID,130,VALID,0,
2011-04-06, 00:36:04,VALID,1001.22,VALID,0,VALID,91.9369,VALID,0,VALID,25.2645,VALID,130,VALID,0,
2011-04-06, 00:37:04,VALID,1001.25,VALID,0,VALID,91.9369,VALID,0,VALID,25.2626,VALID,130,VALID,0,
2011-04-06, 00:38:04,VALID,1001.25,VALID,0,VALID,91.9522,VALID,0,VALID,25.2841,VALID,130,VALID,0,
2011-04-06, 00:39:04,VALID,1001.26,VALID,0,VALID,91.9827,VALID,0,VALID,25.2821,VALID,130,VALID,0,
2011-04-06, 00:40:04,VALID,1001.25,VALID,0,VALID,91.9827,VALID,0,VALID,25.2841,VALID,130,VALID,0,
2011-04-06, 00:41:04,VALID,1001.22,VALID,0,VALID,91.9827,VALID,0,VALID,25.2821,VALID,130,VALID,0,
2011-04-06, 00:42:04,VALID,1001.21,VALID,0,VALID,91.9827,VALID,0,VALID,25.3036,VALID,130,VALID,0,
2011-04-06, 00:43:04,VALID,1001.2,VALID,0,VALID,91.998,VALID,0,VALID,25.2821,VALID,130,VALID,0,
2011-04-06, 00:44:04,VALID,1001.19,VALID,0,VALID,91.9903,VALID,0,VALID,25.3036,VALID,130,VALID,0,
2011-04-06, 00:45:04,VALID,1001.17,VALID,0,VALID,92.0209,VALID,0,VALID,25.2821,VALID,20,VALID,0,
2011-04-06, 00:46:04,VALID,1001.15,VALID,0,VALID,92.0209,VALID,0,VALID,25.2626,VALID,20,VALID,0,
2011-04-06, 00:47:04,VALID,1001.11,VALID,0,VALID,92.0132,VALID,0,VALID,25.2645,VALID,20,VALID,0,
2011-04-06, 00:48:04,VALID,1001.13,VALID,0,VALID,92.0285,VALID,0,VALID,25.2431,VALID,29,VALID,0,
2011-04-06, 00:49:04,VALID,1001.17,VALID,0,VALID,92.0209,VALID,0,VALID,25.204,VALID,31,VALID,0,
2011-04-06, 00:50:04,VALID,1001.2,VALID,0,VALID,92.0132,VALID,0,VALID,25.1845,VALID,31,VALID,0,
2011-04-06, 00:51:04,VALID,1001.18,VALID,0,VALID,92.0285,VALID,0,VALID,25.206,VALID,31,VALID,0,
2011-04-06, 00:52:04,VALID,1001.19,VALID,0,VALID,92.0437,VALID,0,VALID,25.165,VALID,31,VALID,0,
2011-04-06, 00:53:04,VALID,1001.18,VALID,0,VALID,92.0361,VALID,0,VALID,25.165,VALID,31,VALID,0,
2011-04-06, 00:54:04,VALID,1001.16,VALID,0,VALID,92.059,VALID,0,VALID,25.165,VALID,31,VALID,0,
2011-04-06, 00:55:04,VALID,1001.16,VALID,0,VALID,92.059,VALID,0,VALID,25.206,VALID,31,VALID,0,
2011-04-06, 00:56:04,VALID,1001.15,VALID,0,VALID,92.0971,VALID,0,VALID,25.206,VALID,31,VALID,0,
2011-04-06, 00:57:04,VALID,1001.12,VALID,0,VALID,92.1048,VALID,0,VALID,25.1845,VALID,31,VALID,0,
2011-04-06, 00:58:04,VALID,1001.12,VALID,0,VALID,92.1048,VALID,0,VALID,25.1845,VALID,31,VALID,0,
2011-04-06, 00:59:04,VALID,1001.12,VALID,0,VALID,92.0971,VALID,0,VALID,25.1845,VALID,31,VALID,0,
2011-04-06, 01:00:04,VALID,1001.11,VALID,0,VALID,92.1048,VALID,0,VALID,25.1845,VALID,31,VALID,0,
2011-04-06, 01:01:04,VALID,1001.09,VALID,0,VALID,92.1429,VALID,0,VALID,25.1845,VALID,31,VALID,0,
2011-04-06, 01:02:04,VALID,1001.07,VALID,0,VALID,92.1429,VALID,0,VALID,25.1845,VALID,31,VALID,0,
2011-04-06, 01:03:04,VALID,1001.01,VALID,0,VALID,92.1658,VALID,0,VALID,25.206,VALID,31,VALID,0,
2011-04-06, 01:04:04,VALID,1000.96,VALID,0,VALID,92.1734,VALID,0,VALID,25.204,VALID,31,VALID,0,
2011-04-06, 01:05:04,VALID,1000.97,VALID,0,VALID,92.1734,VALID,0,VALID,25.1845,VALID,52,VALID,0,
2011-04-06, 01:06:04,VALID,1000.94,VALID,0,VALID,92.1506,VALID,0,VALID,25.1845,VALID,52,VALID,0,
2011-04-06, 01:07:04,VALID,1000.95,VALID,0,VALID,92.1506,VALID,0,VALID,25.165,VALID,52,VALID,0,
2011-04-06, 01:08:04,VALID,1000.95,VALID,0,VALID,92.1429,VALID,0,VALID,25.165,VALID,45,VALID,0,
2011-04-06, 01:09:04,VALID,1001,VALID,0,VALID,92.1734,VALID,0,VALID,25.165,VALID,40,VALID,0,
2011-04-06, 01:10:04,VALID,1000.99,VALID,0,VALID,92.1734,VALID,0,VALID,25.165,VALID,40,VALID,0,
2011-04-06, 01:11:04,VALID,1000.99,VALID,0,VALID,92.1734,VALID,0,VALID,25.165,VALID,40,VALID,0,
2011-04-06, 01:12:04,VALID,1001.02,VALID,0,VALID,92.1887,VALID,0,VALID,25.165,VALID,40,VALID,0,
2011-04-06, 01:13:04,VALID,1001.01,VALID,0,VALID,92.2192,VALID,0,VALID,25.1845,VALID,40,VALID,0,
2011-04-06, 01:14:04,VALID,1000.99,VALID,0,VALID,92.204,VALID,0,VALID,25.1845,VALID,40,VALID,0,
2011-04-06, 01:15:04,VALID,1000.99,VALID,0,VALID,92.2192,VALID,0,VALID,25.1845,VALID,40,VALID,0,
2011-04-06, 01:16:04,VALID,1001.02,VALID,0,VALID,92.2116,VALID,0,VALID,25.204,VALID,40,VALID,0,
2011-04-06, 01:17:04,VALID,1001,VALID,0,VALID,92.2268,VALID,0,VALID,25.204,VALID,40,VALID,0,
2011-04-06, 01:18:04,VALID,1001.04,VALID,0,VALID,92.2421,VALID,0,VALID,25.204,VALID,40,VALID,0,
2011-04-06, 01:19:04,VALID,1001,VALID,0,VALID,92.2497,VALID,0,VALID,25.1845,VALID,40,VALID,0,
2011-04-06, 01:20:04,VALID,1000.99,VALID,0,VALID,92.2345,VALID,0,VALID,25.204,VALID,40,VALID,0,
2011-04-06, 01:21:04,VALID,1000.96,VALID,0,VALID,92.2345,VALID,0,VALID,25.1631,VALID,40,VALID,0,
2011-04-06, 01:22:04,VALID,1000.97,VALID,0,VALID,92.2345,VALID,0,VALID,25.165,VALID,40,VALID,0,
2011-04-06, 01:23:04,VALID,1000.96,VALID,0,VALID,92.2268,VALID,0,VALID,25.165,VALID,40,VALID,0,
2011-04-06, 01:24:04,VALID,1000.95,VALID,0,VALID,92.2268,VALID,0,VALID,25.1845,VALID,40,VALID,0,
2011-04-06, 01:25:04,VALID,1000.96,VALID,0,VALID,92.2345,VALID,0,VALID,25.1455,VALID,40,VALID,0,
2011-04-06, 01:26:04,VALID,1000.94,VALID,0,VALID,92.2116,VALID,0,VALID,25.1455,VALID,40,VALID,0,
2011-04-06, 01:27:04,VALID,1000.93,VALID,0,VALID,92.2192,VALID,0,VALID,25.1455,VALID,40,VALID,0,
2011-04-06, 01:28:04,VALID,1000.96,VALID,0,VALID,92.204,VALID,0,VALID,25.126,VALID,40,VALID,0,
2011-04-06, 01:29:04,VALID,1000.94,VALID,0,VALID,92.2116,VALID,0,VALID,25.1064,VALID,40,VALID,0,
2011-04-06, 01:30:04,VALID,1000.93,VALID,0,VALID,92.204,VALID,0,VALID,25.1279,VALID,40,VALID,0,
2011-04-06, 01:31:04,VALID,1000.93,VALID,0,VALID,92.1963,VALID,0,VALID,25.1279,VALID,40,VALID,0,
2011-04-06, 01:32:04,VALID,1000.95,VALID,0,VALID,92.2116,VALID,0,VALID,25.1064,VALID,40,VALID,0,
2011-04-06, 01:33:04,VALID,1000.93,VALID,0,VALID,92.204,VALID,0,VALID,25.126,VALID,40,VALID,0,
2011-04-06, 01:34:04,VALID,1000.95,VALID,0,VALID,92.2345,VALID,0,VALID,25.1455,VALID,40,VALID,0,
2011-04-06, 01:35:04,VALID,1000.9,VALID,0,VALID,92.2268,VALID,0,VALID,25.1455,VALID,40,VALID,0,
2011-04-06, 01:36:04,VALID,1000.89,VALID,0,VALID,92.2345,VALID,0,VALID,25.165,VALID,49,VALID,0,
2011-04-06, 01:37:04,VALID,1000.89,VALID,0,VALID,92.2268,VALID,0,VALID,25.1845,VALID,49,VALID,0,
2011-04-06, 01:38:04,VALID,1000.9,VALID,0,VALID,92.2345,VALID,0,VALID,25.1845,VALID,52,VALID,0,
2011-04-06, 01:39:04,VALID,1000.87,VALID,0,VALID,92.2345,VALID,0,VALID,25.1845,VALID,52,VALID,0,
2011-04-06, 01:40:04,VALID,1000.85,VALID,0,VALID,92.2192,VALID,0,VALID,25.1845,VALID,52,VALID,0,
2011-04-06, 01:41:04,VALID,1000.8,VALID,0,VALID,92.2268,VALID,0,VALID,25.165,VALID,52,VALID,0,
2011-04-06, 01:42:04,VALID,1000.79,VALID,0,VALID,92.2192,VALID,0,VALID,25.165,VALID,52,VALID,0,
2011-04-06, 01:43:04,VALID,1000.77,VALID,0,VALID,92.1963,VALID,0,VALID,25.165,VALID,52,VALID,0,
2011-04-06, 01:44:04,VALID,1000.75,VALID,0,VALID,92.2268,VALID,0,VALID,25.165,VALID,52,VALID,0,
2011-04-06, 01:45:04,VALID,1000.75,VALID,0,VALID,92.2192,VALID,0,VALID,25.1455,VALID,52,VALID,0,
2011-04-06, 01:46:04,VALID,1000.73,VALID,0,VALID,92.2345,VALID,0,VALID,25.165,VALID,52,VALID,0,
2011-04-06, 01:47:04,VALID,1000.7,VALID,0,VALID,92.2574,VALID,0,VALID,25.165,VALID,52,VALID,0,
2011-04-06, 01:48:04,VALID,1000.72,VALID,0,VALID,92.2574,VALID,0,VALID,25.126,VALID,52,VALID,0,
2011-04-06, 01:49:04,VALID,1000.71,VALID,0,VALID,92.2574,VALID,0,VALID,25.126,VALID,52,VALID,0,
2011-04-06, 01:50:04,VALID,1000.73,VALID,0,VALID,92.265,VALID,0,VALID,25.1474,VALID,52,VALID,0,
2011-04-06, 01:51:04,VALID,1000.69,VALID,0,VALID,92.265,VALID,0,VALID,25.1455,VALID,52,VALID,0,
2011-04-06, 01:52:04,VALID,1000.68,VALID,0,VALID,92.2803,VALID,0,VALID,25.1455,VALID,52,VALID,0,
2011-04-06, 01:53:04,VALID,1000.64,VALID,0,VALID,92.3184,VALID,0,VALID,25.1455,VALID,52,VALID,0,
2011-04-06, 01:54:04,VALID,1000.61,VALID,0,VALID,92.3108,VALID,0,VALID,25.1455,VALID,52,VALID,0,
2011-04-06, 01:55:04,VALID,1000.6,VALID,0,VALID,92.3108,VALID,0,VALID,25.126,VALID,52,VALID,0,
2011-04-06, 01:56:04,VALID,1000.62,VALID,0,VALID,92.2955,VALID,0,VALID,25.0674,VALID,52,VALID,0,
2011-04-06, 01:57:04,VALID,1000.67,VALID,0,VALID,92.2955,VALID,0,VALID,25.0479,VALID,52,VALID,0,
2011-04-06, 01:58:04,VALID,1000.66,VALID,0,VALID,92.3108,VALID,0,VALID,25.0088,VALID,52,VALID,0,
2011-04-06, 01:59:04,VALID,1000.68,VALID,0,VALID,92.3031,VALID,0,VALID,24.9698,VALID,52,VALID,0,
2011-04-06, 02:00:04,VALID,1000.7,VALID,0,VALID,92.3031,VALID,0,VALID,24.9308,VALID,52,VALID,0,
2011-04-06, 02:01:04,VALID,1000.73,VALID,0,VALID,92.3184,VALID,0,VALID,24.9503,VALID,52,VALID,0,
2011-04-06, 02:02:04,VALID,1000.72,VALID,0,VALID,92.3337,VALID,0,VALID,24.9308,VALID,52,VALID,0,
2011-04-06, 02:03:04,VALID,1000.75,VALID,0,VALID,92.3642,VALID,0,VALID,24.9503,VALID,52,VALID,0,
2011-04-06, 02:04:04,VALID,1000.75,VALID,0,VALID,92.3794,VALID,0,VALID,24.9503,VALID,52,VALID,0,
2011-04-06, 02:05:04,VALID,1000.73,VALID,0,VALID,92.3794,VALID,0,VALID,24.9698,VALID,52,VALID,0,
2011-04-06, 02:06:04,VALID,1000.7,VALID,0,VALID,92.4176,VALID,0,VALID,24.9698,VALID,52,VALID,0,
2011-04-06, 02:07:04,VALID,1000.73,VALID,0,VALID,92.4176,VALID,0,VALID,24.9698,VALID,52,VALID,0,
2011-04-06, 02:08:04,VALID,1000.72,VALID,0,VALID,92.4328,VALID,0,VALID,24.9893,VALID,52,VALID,0,
2011-04-06, 02:09:04,VALID,1000.73,VALID,0,VALID,92.4405,VALID,0,VALID,25.0088,VALID,52,VALID,0,
2011-04-06, 02:10:04,VALID,1000.72,VALID,0,VALID,92.471,VALID,0,VALID,25.0284,VALID,52,VALID,0,
2011-04-06, 02:11:04,VALID,1000.74,VALID,0,VALID,92.4634,VALID,0,VALID,25.0284,VALID,52,VALID,0,
2011-04-06, 02:12:04,VALID,1000.7,VALID,0,VALID,92.4557,VALID,0,VALID,25.0088,VALID,52,VALID,0,
2011-04-06, 02:13:04,VALID,1000.68,VALID,0,VALID,92.4634,VALID,0,VALID,25.0284,VALID,52,VALID,0,
2011-04-06, 02:14:04,VALID,1000.65,VALID,0,VALID,92.4863,VALID,0,VALID,25.0479,VALID,52,VALID,0,
2011-04-06, 02:15:04,VALID,1000.62,VALID,0,VALID,92.4481,VALID,0,VALID,25.0069,VALID,52,VALID,0,
2011-04-06, 02:16:04,VALID,1000.64,VALID,0,VALID,92.4634,VALID,0,VALID,25.0284,VALID,52,VALID,0,
2011-04-06, 02:17:04,VALID,1000.64,VALID,0,VALID,92.4481,VALID,0,VALID,25.0069,VALID,52,VALID,0,
2011-04-06, 02:18:04,VALID,1000.61,VALID,0,VALID,92.4481,VALID,0,VALID,25.0069,VALID,52,VALID,0,
2011-04-06, 02:19:04,VALID,1000.63,VALID,0,VALID,92.471,VALID,0,VALID,25.0069,VALID,52,VALID,0,
2011-04-06, 02:20:04,VALID,1000.61,VALID,0,VALID,92.4481,VALID,0,VALID,24.9874,VALID,52,VALID,0,
2011-04-06, 02:21:04,VALID,1000.57,VALID,0,VALID,92.4328,VALID,0,VALID,25.0069,VALID,52,VALID,0,
2011-04-06, 02:22:04,VALID,1000.53,VALID,0,VALID,92.4557,VALID,0,VALID,25.0265,VALID,52,VALID,0,
2011-04-06, 02:23:04,VALID,1000.45,VALID,0,VALID,92.4557,VALID,0,VALID,25.0265,VALID,52,VALID,0,
2011-04-06, 02:24:04,VALID,1000.44,VALID,0,VALID,92.4634,VALID,0,VALID,25.0069,VALID,52,VALID,0,
2011-04-06, 02:25:04,VALID,1000.43,VALID,0,VALID,92.4634,VALID,0,VALID,25.0069,VALID,52,VALID,0,
2011-04-06, 02:26:04,VALID,1000.47,VALID,0,VALID,92.4405,VALID,0,VALID,25.0479,VALID,52,VALID,0,
2011-04-06, 02:27:04,VALID,1000.45,VALID,0,VALID,92.4328,VALID,0,VALID,25.0069,VALID,52,VALID,0,
2011-04-06, 02:28:04,VALID,1000.5,VALID,0,VALID,92.4328,VALID,0,VALID,24.9874,VALID,52,VALID,0,
2011-04-06, 02:29:04,VALID,1000.49,VALID,0,VALID,92.4252,VALID,0,VALID,24.9698,VALID,52,VALID,0,
2011-04-06, 02:30:04,VALID,1000.49,VALID,0,VALID,92.41,VALID,0,VALID,24.9484,VALID,52,VALID,0,
2011-04-06, 02:31:04,VALID,1000.49,VALID,0,VALID,92.4252,VALID,0,VALID,24.9484,VALID,52,VALID,0,
2011-04-06, 02:32:04,VALID,1000.48,VALID,0,VALID,92.4176,VALID,0,VALID,24.9484,VALID,52,VALID,0,
2011-04-06, 02:33:04,VALID,1000.44,VALID,0,VALID,92.4252,VALID,0,VALID,24.9484,VALID,52,VALID,0,
2011-04-06, 02:34:04,VALID,1000.44,VALID,0,VALID,92.4176,VALID,0,VALID,24.9503,VALID,52,VALID,0,
2011-04-06, 02:35:04,VALID,1000.41,VALID,0,VALID,92.4023,VALID,0,VALID,24.9093,VALID,52,VALID,0,
2011-04-06, 02:36:04,VALID,1000.42,VALID,0,VALID,92.41,VALID,0,VALID,24.9112,VALID,52,VALID,0,
2011-04-06, 02:37:04,VALID,1000.43,VALID,0,VALID,92.4023,VALID,0.112286,VALID,24.8898,VALID,52,VALID,0,
2011-04-06, 02:38:04,VALID,1000.39,VALID,0,VALID,92.4176,VALID,0,VALID,24.9308,VALID,52,VALID,0,
2011-04-06, 02:39:04,VALID,1000.38,VALID,0,VALID,92.4405,VALID,0,VALID,24.8898,VALID,52,VALID,0,
2011-04-06, 02:40:04,VALID,1000.35,VALID,0,VALID,92.4481,VALID,0,VALID,24.8703,VALID,52,VALID,0,
2011-04-06, 02:41:04,VALID,1000.33,VALID,0,VALID,92.4786,VALID,0,VALID,24.9308,VALID,52,VALID,0,
2011-04-06, 02:42:04,VALID,1000.32,VALID,0,VALID,92.471,VALID,0,VALID,24.9698,VALID,52,VALID,0,
2011-04-06, 02:43:04,VALID,1000.33,VALID,0,VALID,92.4939,VALID,0,VALID,24.9698,VALID,52,VALID,0,
2011-04-06, 02:44:04,VALID,1000.34,VALID,0,VALID,92.4863,VALID,0,VALID,24.9698,VALID,52,VALID,0,
2011-04-06, 02:45:04,VALID,1000.34,VALID,0,VALID,92.4863,VALID,0,VALID,24.9484,VALID,52,VALID,0,
2011-04-06, 02:46:04,VALID,1000.3,VALID,0,VALID,92.5015,VALID,0,VALID,24.9484,VALID,52,VALID,0,
2011-04-06, 02:47:04,VALID,1000.29,VALID,0,VALID,92.5091,VALID,0,VALID,24.9503,VALID,52,VALID,0,
2011-04-06, 02:48:04,VALID,1000.29,VALID,0,VALID,92.5091,VALID,0,VALID,24.9698,VALID,52,VALID,0,
2011-04-06, 02:49:04,VALID,1000.27,VALID,0,VALID,92.5244,VALID,0,VALID,24.9679,VALID,52,VALID,0,
2011-04-06, 02:50:04,VALID,1000.27,VALID,0,VALID,92.5397,VALID,0,VALID,24.9874,VALID,52,VALID,0,
2011-04-06, 02:51:04,VALID,1000.28,VALID,0,VALID,92.5473,VALID,0,VALID,24.9874,VALID,52,VALID,0,
2011-04-06, 02:52:04,VALID,1000.28,VALID,0,VALID,92.5473,VALID,0,VALID,24.9874,VALID,52,VALID,0,
2011-04-06, 02:53:04,VALID,1000.26,VALID,0,VALID,92.5626,VALID,0.112286,VALID,25.0069,VALID,52,VALID,0,
2011-04-06, 02:54:04,VALID,1000.25,VALID,0,VALID,92.5702,VALID,0.112286,VALID,25.0265,VALID,49,VALID,0,
2011-04-06, 02:55:04,VALID,1000.22,VALID,0,VALID,92.5778,VALID,0,VALID,25.0265,VALID,26,VALID,0,
2011-04-06, 02:56:04,VALID,1000.2,VALID,0,VALID,92.5854,VALID,0,VALID,25.046,VALID,26,VALID,0,
2011-04-06, 02:57:04,VALID,1000.14,VALID,0,VALID,92.5854,VALID,0,VALID,25.0265,VALID,26,VALID,0,
2011-04-06, 02:58:04,VALID,1000.1,VALID,0,VALID,92.6007,VALID,0,VALID,25.0655,VALID,26,VALID,0,
2011-04-06, 02:59:04,VALID,1000.06,VALID,0,VALID,92.5931,VALID,0,VALID,25.0674,VALID,26,VALID,0,
2011-04-06, 03:00:04,VALID,1000.05,VALID,0,VALID,92.5931,VALID,0,VALID,25.0674,VALID,26,VALID,0,
2011-04-06, 03:01:04,VALID,1000.01,VALID,0,VALID,92.6007,VALID,0,VALID,25.0479,VALID,26,VALID,0,
2011-04-06, 03:02:04,VALID,1000.04,VALID,0,VALID,92.6007,VALID,0,VALID,25.0674,VALID,35,VALID,0,
2011-04-06, 03:03:04,VALID,1000.04,VALID,0,VALID,92.5931,VALID,0,VALID,25.0888,VALID,35,VALID,0,
2011-04-06, 03:04:04,VALID,1000.01,VALID,0,VALID,92.6083,VALID,0,VALID,25.0674,VALID,35,VALID,0,
2011-04-06, 03:05:04,VALID,1000.03,VALID,0,VALID,92.6083,VALID,0,VALID,25.0869,VALID,40,VALID,0,
2011-04-06, 03:06:04,VALID,1000.02,VALID,0,VALID,92.616,VALID,0,VALID,25.0674,VALID,40,VALID,0,
2011-04-06, 03:07:04,VALID,1000.04,VALID,0,VALID,92.6007,VALID,0,VALID,25.0693,VALID,40,VALID,0,
2011-04-06, 03:08:04,VALID,1000.05,VALID,0,VALID,92.6007,VALID,0,VALID,25.0479,VALID,40,VALID,0,
2011-04-06, 03:09:04,VALID,1000.09,VALID,0,VALID,92.5931,VALID,0,VALID,25.0284,VALID,40,VALID,0,
2011-04-06, 03:10:04,VALID,1000.1,VALID,0,VALID,92.6007,VALID,0,VALID,25.0479,VALID,40,VALID,0,
2011-04-06, 03:11:04,VALID,1000.1,VALID,0,VALID,92.5931,VALID,0,VALID,25.0284,VALID,40,VALID,0,
2011-04-06, 03:12:04,VALID,1000.14,VALID,0,VALID,92.5931,VALID,0,VALID,25.0284,VALID,40,VALID,0,
2011-04-06, 03:13:04,VALID,1000.12,VALID,0,VALID,92.5854,VALID,0,VALID,25.0088,VALID,40,VALID,0,
2011-04-06, 03:14:04,VALID,1000.14,VALID,0,VALID,92.5854,VALID,0,VALID,25.0088,VALID,40,VALID,0,
2011-04-06, 03:15:04,VALID,1000.12,VALID,0,VALID,92.5702,VALID,0,VALID,25.0088,VALID,40,VALID,0,
2011-04-06, 03:16:04,VALID,1000.14,VALID,0,VALID,92.5778,VALID,0,VALID,24.9893,VALID,40,VALID,0,
2011-04-06, 03:17:04,VALID,1000.12,VALID,0,VALID,92.5702,VALID,0,VALID,24.9679,VALID,40,VALID,0,
2011-04-06, 03:18:04,VALID,1000.13,VALID,0,VALID,92.5626,VALID,0,VALID,24.9893,VALID,40,VALID,0,
2011-04-06, 03:19:04,VALID,1000.14,VALID,0,VALID,92.5702,VALID,0,VALID,24.9893,VALID,40,VALID,0,
2011-04-06, 03:20:04,VALID,1000.17,VALID,0,VALID,92.5626,VALID,0,VALID,24.9679,VALID,40,VALID,0,
2011-04-06, 03:21:04,VALID,1000.18,VALID,0,VALID,92.5626,VALID,0,VALID,24.9484,VALID,40,VALID,0,
2011-04-06, 03:22:04,VALID,1000.18,VALID,0,VALID,92.5473,VALID,0,VALID,24.9289,VALID,40,VALID,0,
2011-04-06, 03:23:04,VALID,1000.2,VALID,0,VALID,92.5626,VALID,0,VALID,24.9308,VALID,40,VALID,0,
2011-04-06, 03:24:04,VALID,1000.19,VALID,0,VALID,92.5626,VALID,0,VALID,24.9308,VALID,40,VALID,0,
2011-04-06, 03:25:05,VALID,1000.25,VALID,0,VALID,92.5549,VALID,0,VALID,24.9308,VALID,40,VALID,0,
2011-04-06, 03:26:05,VALID,1000.25,VALID,0,VALID,92.5626,VALID,0,VALID,24.9289,VALID,40,VALID,0,
2011-04-06, 03:27:05,VALID,1000.23,VALID,0,VALID,92.5778,VALID,0,VALID,24.9289,VALID,40,VALID,0,
2011-04-06, 03:28:05,VALID,1000.23,VALID,0,VALID,92.5854,VALID,0,VALID,24.9484,VALID,40,VALID,0,
2011-04-06, 03:29:05,VALID,1000.22,VALID,0,VALID,92.5702,VALID,0,VALID,24.9679,VALID,40,VALID,0,
2011-04-06, 03:30:05,VALID,1000.23,VALID,0,VALID,92.616,VALID,0,VALID,25.0088,VALID,40,VALID,0,
2011-04-06, 03:31:05,VALID,1000.24,VALID,0,VALID,92.6083,VALID,0,VALID,25.0088,VALID,40,VALID,0,
2011-04-06, 03:32:05,VALID,1000.22,VALID,0,VALID,92.6312,VALID,0,VALID,25.0284,VALID,40,VALID,0,
2011-04-06, 03:33:05,VALID,1000.25,VALID,0,VALID,92.5931,VALID,0,VALID,25.0284,VALID,40,VALID,0,
2011-04-06, 03:34:05,VALID,1000.21,VALID,0,VALID,92.5854,VALID,0,VALID,25.0284,VALID,40,VALID,0,
2011-04-06, 03:35:05,VALID,1000.22,VALID,0,VALID,92.5931,VALID,0,VALID,25.0284,VALID,40,VALID,0,
2011-04-06, 03:36:05,VALID,1000.17,VALID,0,VALID,92.5931,VALID,0,VALID,25.0284,VALID,40,VALID,0,
2011-04-06, 03:37:05,VALID,1000.17,VALID,0,VALID,92.6083,VALID,0,VALID,25.0284,VALID,40,VALID,0,
2011-04-06, 03:38:05,VALID,1000.17,VALID,0,VALID,92.5931,VALID,0,VALID,24.9893,VALID,40,VALID,0,
2011-04-06, 03:39:05,VALID,1000.21,VALID,0,VALID,92.5626,VALID,0,VALID,25.0088,VALID,40,VALID,0,
2011-04-06, 03:40:05,VALID,1000.19,VALID,0,VALID,92.5549,VALID,0,VALID,24.9698,VALID,40,VALID,0,
2011-04-06, 03:41:05,VALID,1000.22,VALID,0,VALID,92.5778,VALID,0,VALID,24.9503,VALID,40,VALID,0,
2011-04-06, 03:42:05,VALID,1000.22,VALID,0,VALID,92.5626,VALID,0,VALID,24.9308,VALID,40,VALID,0,
2011-04-06, 03:43:05,VALID,1000.26,VALID,0,VALID,92.5397,VALID,0,VALID,24.9308,VALID,40,VALID,0,
2011-04-06, 03:44:05,VALID,1000.25,VALID,0,VALID,92.5549,VALID,0,VALID,24.9503,VALID,40,VALID,0,
2011-04-06, 03:45:05,VALID,1000.24,VALID,0,VALID,92.5549,VALID,0,VALID,24.9698,VALID,40,VALID,0,
2011-04-06, 03:46:05,VALID,1000.23,VALID,0,VALID,92.5702,VALID,0,VALID,24.9893,VALID,40,VALID,0,
2011-04-06, 03:47:05,VALID,1000.22,VALID,0,VALID,92.5702,VALID,0,VALID,24.9893,VALID,40,VALID,0,
2011-04-06, 03:48:05,VALID,1000.24,VALID,0,VALID,92.5626,VALID,0,VALID,24.9679,VALID,114,VALID,0,
2011-04-06, 03:49:05,VALID,1000.25,VALID,0,VALID,92.5626,VALID,0,VALID,25.0088,VALID,114,VALID,0,
2011-04-06, 03:50:05,VALID,1000.26,VALID,0,VALID,92.5702,VALID,0,VALID,25.0088,VALID,128,VALID,0,
2011-04-06, 03:51:05,VALID,1000.26,VALID,0,VALID,92.5397,VALID,0,VALID,24.9893,VALID,128,VALID,0,
2011-04-06, 03:52:05,VALID,1000.27,VALID,0,VALID,92.5778,VALID,0,VALID,25.0088,VALID,128,VALID,0,
2011-04-06, 03:53:05,VALID,1000.29,VALID,0,VALID,92.5473,VALID,0,VALID,25.0088,VALID,128,VALID,0,
2011-04-06, 03:54:05,VALID,1000.34,VALID,0,VALID,92.5397,VALID,0,VALID,25.0088,VALID,128,VALID,0,
2011-04-06, 03:55:05,VALID,1000.37,VALID,0,VALID,92.5473,VALID,0,VALID,24.9874,VALID,128,VALID,0,
2011-04-06, 03:56:05,VALID,1000.42,VALID,0,VALID,92.5397,VALID,0,VALID,24.9893,VALID,128,VALID,0,
2011-04-06, 03:57:05,VALID,1000.46,VALID,0,VALID,92.5244,VALID,0,VALID,24.9893,VALID,128,VALID,0,
2011-04-06, 03:58:05,VALID,1000.49,VALID,0,VALID,92.5091,VALID,0,VALID,24.9698,VALID,128,VALID,0,
2011-04-06, 03:59:05,VALID,1000.52,VALID,0,VALID,92.4939,VALID,0,VALID,24.9308,VALID,128,VALID,0,
2011-04-06, 04:00:05,VALID,1000.58,VALID,0,VALID,92.4863,VALID,0,VALID,24.9093,VALID,128,VALID,0,
2011-04-06, 04:01:05,VALID,1000.6,VALID,0,VALID,92.4939,VALID,0,VALID,24.9112,VALID,128,VALID,0,